User: anonymous   Login
Location: Unspecified
(0.0000°N, 0.0000°E)
Time: 02:40:03
(UTC+02:00)
Language:

Cosmos 1538 Rocket - Orbit

View from above orbital plane
View from above orbital plane
View from above satellite
View from above satellite

Ground track
Ground track

The orbit data is extracted from the following two-line orbital elements,

1 14760U 84019B   17116.69235539 +.00000051 +00000-0 +26429-4 0  9991
2 14760 074.0443 216.3120 0026806 088.5690 058.1065 14.35812350735973
Epoch (UTC): 26 April 2017 16:36:59
Eccentricity: 0.0026806
inclination: 74.0443°
perigee height: 753 km
apogee height: 791 km
right ascension of ascending node: 216.3120°
argument of perigee: 88.5690°
revolutions per day: 14.35812350
mean anomaly at epoch: 58.1065°
orbit number at epoch: 73597

The dashed part of the orbit path shows where the satellite is in the earth's shadow,  

DLR